{"data":{"norad_id":49103,"intl_designator":"2021-075AE","name":"ONEWEB-0317","alt_names":[],"object_type":"PAYLOAD","status":"ACTIVE","operator":null,"country":"UK","launch_date":"2021-08-21","launch_site_code":"TYMSC","launch_vehicle":null,"mission":null,"orbit_class":"UNKNOWN","rcs_meters":null,"size_class":null,"mass_kg":null,"dimensions":null,"purposes":["comms"],"wikipedia_slug":null,"has_3d_model":false,"image_url":null,"decayed_at":null,"tle_current":{"epoch":"2026-09-19T23:23:33.020736Z","epoch_age_seconds":67355,"freshness":"FRESH","line1":"1 49103U 21075AE  26262.97468774  .00000000  00000+0 -36438-4 0  9990","line2":"2 49103  87.8978 331.8498 0001394  81.5872 278.5414 13.12444149247625","mean_motion":13.12444149,"eccentricity":0.0001394,"inclination_deg":87.8978,"raan_deg":331.8498,"arg_perigee_deg":81.5872,"mean_anomaly_deg":278.5414,"bstar":-3.6438e-5,"rev_number":24762,"period_min":109.71895460063,"perigee_km":1212.6605553974,"apogee_km":1214.7771648112,"semimajor_km":7591.8558601043,"source":"CELESTRAK","updated_at":"2026-09-20T09:00:44.658667Z"}}}